| time (UTC) | temp C | wind direction | speed KPH | gust KPH | rain 1hr cm | rain 24hr cm | rain mn cm | humidity % | barometer mb |
| 20260504081540 | 7 | 246 | 0.0 | 3.2 | 0.00 | 0.00 | 0.00 | 82 | 1015.9 |
| 20260504081011 | 7 | 246 | 0.0 | 1.6 | 0.00 | 0.00 | 0.00 | 82 | 1015.8 |
| 20260504080510 | 7 | 246 | 0.0 | 3.2 | 0.00 | 0.00 | 0.00 | 81 | 1015.9 |
| 20260504050504 | 4 | 190 | 0.0 | 0.0 | 0.00 | 0.00 | 0.00 | 84 | 1016.1 |
| 20260504050014 | 4 | 190 | 0.0 | 0.0 | 0.00 | 0.00 | 0.00 | 83 | 1016.1 |
| 20260504045502 | 4 | 190 | 0.0 | 0.0 | 0.00 | 0.00 | 0.00 | 83 | 1016.1 |
| 20260504045003 | 4 | 190 | 0.0 | 0.0 | 0.00 | 0.00 | 0.00 | 83 | 1016.1 |
| 20260504044508 | 4 | 190 | 0.0 | 0.0 | 0.00 | 0.00 | 0.00 | 83 | 1016.2 |
| 20260504044003 | 4 | 190 | 0.0 | 0.0 | 0.00 | 0.00 | 0.00 | 84 | 1016.2 |
| 20260504043504 | 4 | 190 | 0.0 | 0.0 | 0.00 | 0.00 | 0.00 | 84 | 1016.2 |
| 20260504043033 | 4 | 190 | 0.0 | 0.0 | 0.00 | 0.00 | 0.00 | 83 | 1016.2 |
| 20260504042505 | 4 | 190 | 0.0 | 0.0 | 0.00 | 0.00 | 0.00 | 83 | 1016.1 |
| 20260504042009 | 4 | 190 | 0.0 | 0.0 | 0.00 | 0.00 | 0.00 | 82 | 1016.2 |
| 20260504041506 | 5 | 190 | 0.0 | 0.0 | 0.00 | 0.00 | 0.00 | 82 | 1016.1 |
| 20260504041003 | 5 | 190 | 0.0 | 0.0 | 0.00 | 0.00 | 0.00 | 82 | 1016.1 |
| 20260504040508 | 5 | 190 | 0.0 | 0.0 | 0.00 | 0.00 | 0.00 | 82 | 1016.0 |
| 20260504040022 | 5 | 190 | 0.0 | 0.0 | 0.00 | 0.00 | 0.00 | 81 | 1016.1 |
| 20260504035505 | 5 | 190 | 0.0 | 0.0 | 0.00 | 0.00 | 0.00 | 81 | 1016.1 |
| 20260504035004 | 5 | 190 | 0.0 | 0.0 | 0.00 | 0.00 | 0.00 | 81 | 1016.1 |
| 20260504034506 | 5 | 190 | 0.0 | 0.0 | 0.00 | 0.00 | 0.00 | 81 | 1015.9 |
| 20260504034004 | 5 | 190 | 0.0 | 0.0 | 0.00 | 0.00 | 0.00 | 80 | 1015.9 |
| 20260504033501 | 5 | 190 | 0.0 | 3.2 | 0.00 | 0.00 | 0.00 | 79 | 1015.8 |
| 20260504033012 | 5 | 190 | 0.0 | 3.2 | 0.00 | 0.00 | 0.00 | 79 | 1015.8 |
| 20260504032504 | 5 | 197 | 0.0 | 1.6 | 0.00 | 0.00 | 0.00 | 78 | 1015.7 |
| 20260504032010 | 5 | 197 | 0.0 | 0.0 | 0.00 | 0.00 | 0.00 | 77 | 1015.6 |
| 20260504031516 | 5 | 197 | 0.0 | 0.0 | 0.00 | 0.00 | 0.00 | 76 | 1015.5 |
| 20260504031009 | 6 | 197 | 0.0 | 0.0 | 0.00 | 0.00 | 0.00 | 76 | 1015.4 |
| 20260504030505 | 6 | 197 | 0.0 | 0.0 | 0.00 | 0.00 | 0.00 | 75 | 1015.3 |
| 20260504030026 | 6 | 197 | 0.0 | 0.0 | 0.00 | 0.00 | 0.00 | 74 | 1015.5 |
| 20260504025503 | 6 | 197 | 0.0 | 0.0 | 0.00 | 0.00 | 0.00 | 73 | 1015.5 |
| 20260504025002 | 6 | 197 | 0.0 | 0.0 | 0.00 | 0.00 | 0.00 | 73 | 1015.4 |
| 20260504024514 | 6 | 197 | 0.0 | 0.0 | 0.00 | 0.00 | 0.00 | 73 | 1015.5 |
| 20260504024007 | 6 | 197 | 0.0 | 0.0 | 0.00 | 0.00 | 0.00 | 72 | 1015.4 |
| 20260504023503 | 6 | 197 | 0.0 | 0.0 | 0.00 | 0.00 | 0.00 | 71 | 1015.5 |
| 20260504023010 | 7 | 197 | 0.0 | 0.0 | 0.00 | 0.00 | 0.00 | 70 | 1015.5 |
| 20260504022502 | 7 | 197 | 0.0 | 0.0 | 0.00 | 0.00 | 0.00 | 68 | 1015.5 |
| 20260504022007 | 7 | 197 | 0.0 | 0.0 | 0.00 | 0.00 | 0.00 | 68 | 1015.6 |
| 20260504021508 | 7 | 197 | 0.0 | 0.0 | 0.00 | 0.00 | 0.00 | 68 | 1015.6 |
| 20260504021003 | 7 | 197 | 0.0 | 0.0 | 0.00 | 0.00 | 0.00 | 68 | 1015.5 |
| 20260504020502 | 7 | 197 | 0.0 | 0.0 | 0.00 | 0.00 | 0.00 | 67 | 1015.4 |
| 20260504020019 | 7 | 197 | 0.0 | 0.0 | 0.00 | 0.00 | 0.00 | 66 | 1015.4 |
| 20260504015509 | 8 | 197 | 0.0 | 0.0 | 0.00 | 0.00 | 0.00 | 64 | 1015.3 |
| 20260504015011 | 8 | 197 | 0.0 | 0.0 | 0.00 | 0.00 | 0.00 | 63 | 1015.5 |
| 20260504014533 | 8 | 197 | 0.0 | 0.0 | 0.00 | 0.00 | 0.00 | 62 | 1015.4 |
| 20260504014009 | 8 | 197 | 0.0 | 0.0 | 0.00 | 0.00 | 0.00 | 60 | 1015.5 |
| 20260504013507 | 8 | 197 | 0.0 | 0.0 | 0.00 | 0.00 | 0.00 | 59 | 1015.3 |
| 20260504013027 | 9 | 197 | 0.0 | 0.0 | 0.00 | 0.00 | 0.00 | 59 | 1015.3 |
| 20260504012504 | 9 | 197 | 0.0 | 0.0 | 0.00 | 0.00 | 0.00 | 58 | 1015.3 |
| 20260504012003 | 9 | 197 | 0.0 | 0.0 | 0.00 | 0.00 | 0.00 | 56 | 1015.2 |
| 20260504011510 | 10 | 197 | 0.0 | 0.0 | 0.00 | 0.00 | 0.00 | 55 | 1015.2 |
| 20260504011002 | 10 | 197 | 0.0 | 0.0 | 0.00 | 0.00 | 0.00 | 54 | 1015.2 |
| 20260504010503 | 10 | 197 | 0.0 | 0.0 | 0.00 | 0.00 | 0.00 | 53 | 1015.1 |
| 20260504010014 | 10 | 197 | 0.0 | 0.0 | 0.00 | 0.00 | 0.00 | 52 | 1015.1 |
| 20260504005510 | 11 | 197 | 0.0 | 0.0 | 0.00 | 0.00 | 0.00 | 51 | 1015.0 |
| 20260504005006 | 11 | 197 | 0.0 | 0.0 | 0.00 | 0.00 | 0.00 | 49 | 1015.0 |
| 20260504004514 | 11 | 197 | 0.0 | 0.0 | 0.00 | 0.00 | 0.00 | 48 | 1015.0 |
| 20260504004008 | 11 | 197 | 0.0 | 0.0 | 0.00 | 0.00 | 0.00 | 48 | 1015.0 |
| 20260504003509 | 12 | 197 | 0.0 | 0.0 | 0.00 | 0.00 | 0.00 | 47 | 1014.9 |
| 20260504003024 | 12 | 197 | 0.0 | 1.6 | 0.00 | 0.00 | 0.00 | 46 | 1014.9 |
| 20260504002512 | 12 | 197 | 0.0 | 1.6 | 0.00 | 0.00 | 0.00 | 46 | 1014.8 |
| 20260504002002 | 12 | 197 | 0.0 | 0.0 | 0.00 | 0.00 | 0.00 | 45 | 1014.7 |
| 20260504001505 | 13 | 197 | 0.0 | 0.0 | 0.00 | 0.00 | 0.00 | 44 | 1014.7 |
| 20260504001004 | 13 | 197 | 0.0 | 0.0 | 0.00 | 0.00 | 0.00 | 43 | 1014.7 |
| 20260504000504 | 13 | 197 | 0.0 | 1.6 | 0.00 | 0.00 | 0.00 | 42 | 1014.6 |
| 20260504000007 | 13 | 197 | 0.0 | 3.2 | 0.00 | 0.00 | 0.00 | 41 | 1014.6 |
| 20260503235504 | 14 | 197 | 0.0 | 3.2 | 0.00 | 0.00 | 0.00 | 40 | 1014.6 |
| 20260503235004 | 14 | 218 | 0.0 | 3.2 | 0.00 | 0.00 | 0.00 | 38 | 1014.5 |
| 20260503234504 | 15 | 218 | 0.0 | 3.2 | 0.00 | 0.00 | 0.00 | 38 | 1014.5 |
| 20260503234004 | 15 | 201 | 0.0 | 8.0 | 0.00 | 0.00 | 0.00 | 37 | 1014.4 |
| 20260503233504 | 15 | 201 | 0.0 | 8.0 | 0.00 | 0.00 | 0.00 | 36 | 1014.3 |
| 20260503233018 | 15 | 236 | 0.0 | 6.4 | 0.00 | 0.00 | 0.00 | 34 | 1014.3 |
| 20260503232502 | 15 | 279 | 0.0 | 6.4 | 0.00 | 0.00 | 0.00 | 33 | 1014.2 |
| 20260503232006 | 16 | 287 | 0.0 | 6.4 | 0.00 | 0.00 | 0.00 | 33 | 1014.2 |
| 20260503231504 | 16 | 21 | 1.6 | 16.1 | 0.00 | 0.00 | 0.00 | 33 | 1014.2 |
| 20260503231003 | 16 | 288 | 6.4 | 16.1 | 0.00 | 0.00 | 0.00 | 32 | 1014.2 |
| 20260503230507 | 16 | 258 | 3.2 | 12.9 | 0.00 | 0.00 | 0.00 | 31 | 1014.1 |
| 20260503230008 | 16 | 181 | 3.2 | 16.1 | 0.00 | 0.00 | 0.00 | 31 | 1014.1 |
| 20260503225503 | 16 | 337 | 3.2 | 16.1 | 0.00 | 0.00 | 0.00 | 30 | 1014.2 |
| 20260503225003 | 16 | 150 | 4.8 | 16.1 | 0.00 | 0.00 | 0.00 | 30 | 1014.2 |
| 20260503224509 | 16 | 296 | 3.2 | 20.9 | 0.00 | 0.00 | 0.00 | 31 | 1014.3 |
| 20260503224003 | 16 | 336 | 3.2 | 20.9 | 0.00 | 0.00 | 0.00 | 30 | 1014.3 |
| 20260503223502 | 16 | 327 | 8.0 | 19.3 | 0.00 | 0.00 | 0.00 | 30 | 1014.3 |
| 20260503223007 | 16 | 344 | 4.8 | 16.1 | 0.00 | 0.00 | 0.00 | 31 | 1014.2 |
| 20260503222504 | 17 | 267 | 4.8 | 20.9 | 0.00 | 0.00 | 0.00 | 29 | 1014.2 |
| 20260503222006 | 17 | 234 | 9.7 | 20.9 | 0.00 | 0.00 | 0.00 | 29 | 1014.1 |
| 20260503221511 | 17 | 317 | 6.4 | 16.1 | 0.00 | 0.00 | 0.00 | 30 | 1014.1 |
| 20260503221009 | 17 | 274 | 4.8 | 14.5 | 0.00 | 0.00 | 0.00 | 30 | 1014.1 |
| 20260503220504 | 17 | 309 | 4.8 | 24.1 | 0.00 | 0.00 | 0.00 | 29 | 1014.3 |
| 20260503220006 | 18 | 342 | 3.2 | 24.1 | 0.00 | 0.00 | 0.00 | 28 | 1014.3 |
| 20260503215503 | 18 | 335 | 9.7 | 19.3 | 0.00 | 0.00 | 0.00 | 28 | 1014.4 |
| 20260503215003 | 18 | 331 | 6.4 | 20.9 | 0.00 | 0.00 | 0.00 | 28 | 1014.3 |
| 20260503214512 | 18 | 212 | 8.0 | 20.9 | 0.00 | 0.00 | 0.00 | 29 | 1014.3 |
| 20260503214003 | 17 | 315 | 6.4 | 20.9 | 0.00 | 0.00 | 0.00 | 29 | 1014.2 |
| 20260503213503 | 17 | 336 | 9.7 | 20.9 | 0.00 | 0.00 | 0.00 | 29 | 1014.3 |
| 20260503213011 | 17 | 275 | 9.7 | 25.7 | 0.00 | 0.00 | 0.00 | 29 | 1014.2 |
| 20260503212504 | 17 | 331 | 4.8 | 25.7 | 0.00 | 0.00 | 0.00 | 29 | 1014.0 |
| 20260503212005 | 17 | 267 | 9.7 | 19.3 | 0.00 | 0.00 | 0.00 | 29 | 1014.2 |
| 20260503211514 | 17 | 210 | 6.4 | 20.9 | 0.00 | 0.00 | 0.00 | 29 | 1014.2 |
| 20260503211004 | 17 | 256 | 4.8 | 20.9 | 0.00 | 0.00 | 0.00 | 30 | 1014.3 |
| 20260503210506 | 17 | 283 | 8.0 | 20.9 | 0.00 | 0.00 | 0.00 | 30 | 1014.2 |
| 20260503210008 | 17 | 347 | 6.4 | 20.9 | 0.00 | 0.00 | 0.00 | 31 | 1014.3 |
| 20260503205503 | 17 | 187 | 6.4 | 20.9 | 0.00 | 0.00 | 0.00 | 31 | 1014.3 |
| 20260503205003 | 17 | 288 | 4.8 | 20.9 | 0.00 | 0.00 | 0.00 | 31 | 1014.2 |
| 20260503204508 | 17 | 263 | 9.7 | 20.9 | 0.00 | 0.00 | 0.00 | 33 | 1014.3 |
| 20260503204004 | 17 | 274 | 8.0 | 30.6 | 0.00 | 0.00 | 0.00 | 31 | 1014.3 |
| 20260503203507 | 17 | 315 | 14.5 | 30.6 | 0.00 | 0.00 | 0.00 | 33 | 1014.4 |
| 20260503203035 | 16 | 262 | 4.8 | 19.3 | 0.00 | 0.00 | 0.00 | 34 | 1014.4 |
| 20260503202507 | 16 | 311 | 8.0 | 19.3 | 0.00 | 0.00 | 0.00 | 33 | 1014.6 |
| 20260503202004 | 16 | 305 | 8.0 | 22.5 | 0.00 | 0.00 | 0.00 | 32 | 1014.6 |
| 20260503201511 | 17 | 43 | 6.4 | 24.1 | 0.00 | 0.00 | 0.00 | 32 | 1014.6 |
| 20260503201009 | 17 | 333 | 11.3 | 27.4 | 0.00 | 0.00 | 0.00 | 33 | 1014.8 |
| 20260503200504 | 17 | 287 | 12.9 | 32.2 | 0.00 | 0.00 | 0.00 | 33 | 1014.9 |
| 20260503200017 | 16 | 331 | 14.5 | 32.2 | 0.00 | 0.00 | 0.00 | 32 | 1014.8 |
| 20260503195505 | 17 | 194 | 11.3 | 27.4 | 0.00 | 0.00 | 0.00 | 34 | 1015.0 |
| 20260503195005 | 17 | 319 | 14.5 | 27.4 | 0.00 | 0.00 | 0.00 | 31 | 1015.1 |
| 20260503194531 | 16 | 269 | 8.0 | 22.5 | 0.00 | 0.00 | 0.00 | 33 | 1015.0 |
| 20260503194003 | 16 | 288 | 6.4 | 30.6 | 0.00 | 0.00 | 0.00 | 33 | 1015.2 |
| 20260503193503 | 16 | 306 | 12.9 | 30.6 | 0.00 | 0.00 | 0.00 | 32 | 1015.3 |
| 20260503193014 | 16 | 196 | 6.4 | 25.7 | 0.00 | 0.00 | 0.00 | 35 | 1015.3 |
| 20260503192504 | 16 | 265 | 8.0 | 20.9 | 0.00 | 0.00 | 0.00 | 34 | 1015.4 |
| 20260503192007 | 16 | 253 | 6.4 | 25.7 | 0.00 | 0.00 | 0.00 | 34 | 1015.4 |
| 20260503191515 | 16 | 342 | 4.8 | 25.7 | 0.00 | 0.00 | 0.00 | 34 | 1015.5 |
| 20260503191004 | 16 | 285 | 3.2 | 22.5 | 0.00 | 0.00 | 0.00 | 34 | 1015.4 |
| 20260503190503 | 16 | 341 | 9.7 | 22.5 | 0.00 | 0.00 | 0.00 | 35 | 1015.6 |
| 20260503190009 | 16 | 303 | 8.0 | 32.2 | 0.00 | 0.00 | 0.00 | 33 | 1015.7 |
| 20260503185506 | 16 | 304 | 11.3 | 32.2 | 0.00 | 0.00 | 0.00 | 33 | 1015.7 |
| 20260503185005 | 16 | 325 | 9.7 | 29.0 | 0.00 | 0.00 | 0.00 | 33 | 1015.7 |
| 20260503184523 | 16 | 315 | 12.9 | 29.0 | 0.00 | 0.00 | 0.00 | 34 | 1015.7 |
| 20260503184006 | 16 | 323 | 14.5 | 25.7 | 0.00 | 0.00 | 0.00 | 35 | 1016.0 |
| 20260503183508 | 16 | 184 | 11.3 | 25.7 | 0.00 | 0.00 | 0.00 | 38 | 1015.9 |
| 20260503183018 | 16 | 320 | 8.0 | 27.4 | 0.00 | 0.00 | 0.00 | 34 | 1016.0 |
| 20260503182506 | 16 | 247 | 9.7 | 27.4 | 0.00 | 0.00 | 0.00 | 37 | 1016.0 |
| 20260503182007 | 16 | 267 | 12.9 | 32.2 | 0.00 | 0.00 | 0.00 | 34 | 1016.1 |
| 20260503181513 | 16 | 287 | 9.7 | 32.2 | 0.00 | 0.00 | 0.00 | 35 | 1016.1 |
| 20260503181005 | 16 | 313 | 8.0 | 27.4 | 0.00 | 0.00 | 0.00 | 38 | 1016.1 |
| 20260503180507 | 16 | 327 | 9.7 | 27.4 | 0.00 | 0.00 | 0.00 | 34 | 1016.0 |
| 20260503180016 | 16 | 319 | 11.3 | 27.4 | 0.00 | 0.00 | 0.00 | 36 | 1016.1 |
| 20260503175505 | 16 | 261 | 8.0 | 29.0 | 0.00 | 0.00 | 0.00 | 38 | 1016.1 |
| 20260503175006 | 15 | 326 | 16.1 | 29.0 | 0.00 | 0.00 | 0.00 | 34 | 1016.1 |
| 20260503174517 | 15 | 312 | 9.7 | 30.6 | 0.00 | 0.00 | 0.00 | 34 | 1016.2 |
| 20260503174007 | 15 | 346 | 14.5 | 30.6 | 0.00 | 0.00 | 0.00 | 35 | 1016.5 |
| 20260503173506 | 15 | 237 | 14.5 | 29.0 | 0.00 | 0.00 | 0.00 | 35 | 1016.3 |
| 20260503173017 | 15 | 333 | 14.5 | 32.2 | 0.00 | 0.00 | 0.00 | 33 | 1016.5 |
| 20260503172505 | 16 | 303 | 16.1 | 32.2 | 0.00 | 0.00 | 0.00 | 36 | 1016.3 |
| 20260503172011 | 16 | 311 | 14.5 | 22.5 | 0.00 | 0.00 | 0.00 | 37 | 1016.3 |
| 20260503171520 | 15 | 313 | 11.3 | 29.0 | 0.00 | 0.00 | 0.00 | 35 | 1016.4 |
| 20260503171007 | 16 | 5 | 11.3 | 29.0 | 0.00 | 0.00 | 0.00 | 36 | 1016.3 |
| 20260503170506 | 15 | 321 | 11.3 | 25.7 | 0.00 | 0.00 | 0.00 | 35 | 1016.4 |
| 20260503151004 | 13 | 345 | 11.3 | 25.7 | 0.00 | 0.00 | 0.00 | 36 | 1017.1 |
| 20260503150504 | 13 | 292 | 11.3 | 25.7 | 0.00 | 0.00 | 0.00 | 36 | 1017.0 |
| 20260503131004 | 10 | 300 | 12.9 | 24.1 | 0.00 | 0.00 | 0.00 | 50 | 1017.3 |
| 20260503130508 | 10 | 339 | 12.9 | 24.1 | 0.00 | 0.00 | 0.00 | 50 | 1017.3 |
| 20260503110506 | 5 | 340 | 4.8 | 14.5 | 0.00 | 0.00 | 0.00 | 69 | 1016.2 |